Location: Houghton
(47.1220°N, 88.5690°W)
Time: 23:28:16
(UTC-04:00)

Tiangong 2 - Visible Passes

Search period start: 23 June 2018 00:00
Search period end: 03 July 2018 00:00
Orbit: 385 x 396 km, 42.8° (Epoch: 23 June)

Date Brightness Start Highest point End Pass type
(mag) Time Alt. Az. Time Alt. Az. Time Alt. Az.
28 Jun 3.3 05:11:59 10° S 05:13:51 15° SSE 05:15:44 10° ESE visible
30 Jun 2.7 04:53:37 13° SSW 04:55:33 21° SSE 04:58:05 10° ESE visible
01 Jul 3.1 03:58:34 15° SSE 03:58:34 15° SSE 04:00:19 10° ESE visible
02 Jul 2.2 04:35:52 19° SSW 04:37:21 28° SSE 04:40:11 10° ESE visible
